CAPE
0 0 0 0 0 0 0 0 0 0 0 0 0 0 0 0 0 0 0 0 0 0 0 0 0 0 0 0 0 0 0 0 0 0 0 0 0 0 0 0 0 0 0 0
0 0 0 0 0 0 0 0 0 0 0 0 0 0 0 0 0 0 0 0 0 0 0 0 0 0 0 0 0 0 0 0 0 0 0 0 0 0 0 0 0 0 0 0
0 0 0 0 0 0 0 0 0 0 0 0 0 0 0 0 0 0 0 0 0 0 0 0 0 0 0 0 0 0 0 0 0 0 0 0 0 0 0 0 0 0 0 0
0 0 0 0 0 0 0 0 0 0 0 0 0 0 0 0 0 0 0 0 0 0 0 0 0 0 0 0 0 0 0 0 0 0 0 0 0 0 0 0 0 0 0 0
0 0 0 0 0 0 0 0 0 0 0 0 0 0 0 0 0 0 0 0 0 0 0 0 0 0 0 0 0 0 0 0 0 0 0 0 0 0 0 0 0 0 0 0
0 0 0 0 0 0 0 0 0 0 0 0 0 0 0 0 0 0 0 0 0 0 0 0 0 0 0 0 0 0 0 0 0 0 0 0 0 0 0 0 0 0 0 0
0 0 0 0 0 0 0 0 0 0 0 0 0 0 0 0 0 0 0 0 0 0 0 0 0 0 0 0 0 0 0 0 0 0 0 0 0 0 0 0 0 0 0 0
0 0 0 0 0 0 0 0 0 0 0 0 0 0 0 0 0 0 0 0 0 0 0 0 0 0 0 0 0 0 0 0 0 0 0 0 0 0 0 0 0 0 0 0
0 0 0 0 0 0 0 0 0 0 0 0 0 0 0 0 0 0 0 0 0 0 0 0 0 0 0 0 0 0 0 0 0 0 0 0 0 0 0 0 0 0 0 0
0 0 0 0 0 0 0 0 0 0 0 0 0 0 0 0 0 0 0 0 0 0 0 0 0 0 0 0 0 0 0 0 0 0 0 0 0 0 0 0 0 0 0 0
0 0 0 0 0 0 0 0 0 0 0 0 0 0 0 0 0 0 0 0 0 0 0 0 0 0 0 0 0 0 0 0 0 0 0 0 0 0 0 0 0 0 0 0
0 0 0 0 0 0 0 0 0 0 0 0 0 0 0 0 0 0 0 0 0 0 0 0 0 0 0 0 0 0 0 0 0 0 0 0 0 0 2 23 54 61 60 48
0 0 0 0 0 0 0 0 0 0 0 0 0 0 0 0 0 0 0 0 0 0 0 0 0 0 0 0 0 0 0 0 0 0 0 0 0 0 1 0 2 5 15 20
0 0 0 0 0 0 0 0 0 0 0 0 0 0 0 0 0 0 0 0 0 0 0 0 0 0 0 0 0 0 0 0 0 0 0 0 0 0 0 0 1 0 0 3
0 0 0 0 0 0 0 0 0 0 0 0 0 0 0 0 0 0 0 0 0 0 0 0 0 0 0 0 0 0 0 0 0 0 0 2 0 1 2 2 1 0 0 0
0 0 0 0 0 0 0 0 0 0 0 0 0 0 0 0 0 0 0 0 0 0 0 0 0 0 0 0 0 0 0 11 18 4 0 0 0 0 1 1 3 2 0 0
0 0 0 0 0 0 0 0 0 0 0 0 0 0 0 0 0 0 0 0 0 0 0 0 0 0 0 0 0 7 4 2 18 9 7 9 11 11 8 10 8 9 11 9
0 0 0 0 0 0 0 0 0 0 0 0 0 0 0 0 0 0 0 0 0 0 0 0 0 0 1 0 1 4 10 5 5 3 8 6 9 4 3 4 2 4 2 4
0 0 0 0 0 0 0 0 0 0 0 0 0 0 0 0 0 0 0 0 0 0 0 0 0 1 0 0 17 3 1 2 2 4 5 8 1 1 3 1 1 2 2 3
0 0 0 0 0 0 0 0 0 0 0 0 0 0 0 0 0 0 0 0 0 0 0 0 0 0 0 1 8 0 2 1 2 2 2 0 0 0 0 1 1 0 0 2
0 0 0 0 0 0 0 0 0 0 0 0 0 0 0 0 0 0 0 0 0 0 0 0 0 0 0 0 0 0 1 0 0 0 0 0 0 0 0 0 0 0 0 0
0 0 0 0 0 0 0 0 0 0 0 0 0 0 0 0 0 0 0 0 0 1 2 1 0 7 1 1 0 0 0 0 0 0 0 0 0 0 0 0 0 0 0 0
0 0 0 0 0 0 0 0 0 0 0 0 0 0 0 0 0 0 0 0 0 2 0 0 8 10 4 0 0 0 0 0 0 0 0 0 0 0 0 0 0 0 0 0
0 0 0 0 0 0 0 0 0 0 0 0 0 0 0 0 0 0 0 0 6 8 0 2 8 7 2 0 0 0 0 0 0 0 0 0 0 0 0 0 0 0 0 0
0 0 0 0 0 0 0 0 0 0 0 0 0 0 0 0 0 0 0 0 3 1 0 3 8 3 0 0 0 0 0 0 0 0 0 0 0 0 0 0 0 0 0 0
0 0 0 0 0 0 0 0 0 0 0 0 0 0 0 0 0 0 0 1 0 1 0 0 1 0 0 0 0 0 0 0 0 0 0 0 0 0 0 0 0 0 0 0
0 0 0 0 0 0 0 2 0 0 0 0 0 0 0 0 0 1 0 0 0 0 0 0 0 0 0 0 0 0 0 0 0 0 0 0 0 0 0 0 0 0 0 0
CIN
-0 -0 -0 -0 -0 -0 -0 -0 -0 -0 -0 -0 -0 -0 -0 -0 -0 -0 -0 -0 -0 -0 -0 -0 -0 -0 -0 -0 -0 -0 -0 -0 -0 -0 -0 -0 -0 -0 -0 -42 -10 -0 -0 -0
-0 -0 -0 -0 -0 -0 -0 -0 -0 -0 -0 -0 -0 -0 -0 -0 -0 -0 -0 -0 -0 -0 -0 -0 -0 -0 -0 -0 -0 -0 -0 -0 -0 -0 -0 -0 -0 -0 -0 -0 -0 -0 -0 -0
-0 -0 -0 -0 -0 -0 -0 -0 -0 -0 -0 -0 -0 -0 -0 -0 -0 -0 -0 -0 -0 -0 -0 -0 -0 -0 -0 -0 -0 -0 -0 -0 -0 -0 -0 -0 -0 -0 -0 -0 -0 -0 -0 -0
-0 -0 -0 -0 -0 -0 -0 -0 -0 -0 -0 -0 -0 -0 -0 -0 -0 -0 -0 -0 -0 -0 -0 -0 -0 -0 -0 -0 -0 -0 -0 -0 -0 -0 -0 -0 -0 -0 -0 -0 -0 -0 -0 -0
-0 -0 -0 -0 -0 -0 -0 -0 -0 -0 -0 -0 -0 -0 -0 -0 -0 -0 -0 -0 -0 -0 -0 -0 -0 -0 -0 -0 -0 -0 -0 -0 -0 -0 -0 -0 -0 -0 -0 -0 -0 -0 -0 -0
-0 -0 -0 -0 -0 -0 -0 -0 -0 -0 -0 -0 -0 -0 -0 -0 -0 -0 -0 -0 -0 -0 -0 -0 -0 -0 -0 -0 -0 -0 -0 -0 -0 -0 -0 -0 -0 -0 -0 -0 -0 -0 -0 -0
-0 -0 -0 -0 -0 -0 -0 -0 -0 -0 -0 -0 -0 -0 -0 -0 -0 -0 -0 -0 -0 -0 -0 -0 -0 -0 -0 -0 -0 -0 -0 -0 -0 -0 -0 -0 -0 -0 -0 -0 -0 -0 -0 -0
-0 -0 -0 -0 -0 -0 -0 -0 -0 -0 -0 -0 -0 -0 -0 -0 -0 -0 -0 -0 -0 -0 -0 -0 -0 -0 -0 -0 -0 -0 -0 -0 -0 -0 -0 -0 -0 -0 -0 -0 -0 -0 -0 -0
-0 -0 -0 -0 -0 -0 -0 -0 -0 -0 -0 -0 -0 -0 -0 -0 -0 -0 -0 -0 -0 -0 -0 -0 -0 -0 -0 -0 -0 -0 -0 -0 -0 -0 -0 -0 -0 -0 -0 -0 -0 -0 -0 -0
-0 -0 -0 -0 -0 -0 -0 -0 -0 -0 -0 -0 -0 -0 -0 -0 -0 -0 -0 -0 -0 -0 -0 -0 -0 -0 -0 -0 -0 -0 -0 -0 -0 -0 -0 -0 -0 -0 -0 -0 -0 -0 -0 -0
-0 -0 -0 -0 -0 -0 -0 -0 -0 -0 -0 -0 -0 -0 -0 -0 -0 -0 -0 -0 -0 -0 -0 -0 -0 -0 -0 -0 -0 -0 -0 -0 -0 -0 -0 -0 -0 -0 -0 -0 -0 -0 -0 -0
-0 -0 -0 -0 -0 -0 -0 -0 -0 -0 -0 -0 -0 -0 -0 -0 -0 -0 -0 -0 -0 -0 -0 -0 -0 -0 -0 -0 -0 -0 -0 -0 -0 -1 -0 -0 -0 -0 -0 -0 -0 -0 -0 -0
-0 -0 -0 -0 -0 -0 -0 -0 -0 -0 -0 -0 -0 -0 -0 -0 -0 -0 -0 -0 -0 -0 -0 -0 -0 -0 -0 -0 -0 -0 -0 -0 -0 -0 -0 -0 -0 -1 -1 -0 -0 -0 -0 -0
-0 -0 -0 -0 -0 -0 -0 -0 -0 -0 -0 -0 -0 -0 -0 -0 -0 -0 -0 -0 -0 -0 -0 -0 -0 -0 -0 -0 -0 -0 -0 -0 -0 -0 -0 -0 -0 -0 -0 -0 -1 -2 -0 -0
-0 -0 -0 -0 -0 -0 -0 -0 -0 -0 -0 -0 -0 -0 -0 -0 -0 -0 -0 -0 -0 -0 -0 -0 -0 -0 -0 -0 -0 -0 -0 -0 -0 -2 -0 -0 -0 -1 -1 -1 -0 -0 -0 -0
-0 -0 -0 -0 -0 -0 -0 -0 -0 -0 -0 -0 -0 -0 -0 -0 -0 -0 -0 -0 -0 -0 -0 -0 -0 -0 -0 -0 -0 -0 -0 -0 -0 -1 -0 -0 -0 -0 -0 -0 -0 -0 -1 -1
-0 -0 -0 -0 -0 -0 -0 -0 -0 -0 -0 -0 -0 -0 -0 -0 -0 -0 -0 -0 -0 -0 -0 -0 -0 -0 -0 -0 -0 -0 -0 -0 -0 -0 -0 -0 -0 -0 -0 -0 -0 -0 -0 -0
-0 -0 -0 -0 -0 -0 -0 -0 -0 -0 -0 -0 -0 -0 -0 -0 -0 -0 -0 -0 -0 -0 -0 -0 -0 -0 -1 -1 -0 -0 -0 -0 -0 -0 -0 -0 -0 -0 -0 -0 -0 -0 -0 -0
-0 -0 -0 -0 -0 -0 -0 -0 -0 -0 -0 -0 -0 -0 -0 -0 -0 -0 -0 -0 -0 -0 -0 -0 -0 -0 -0 -0 -0 -0 -0 -0 -0 -0 -0 -0 -0 -0 -0 -0 -0 -0 -0 -0
-0 -0 -0 -0 -0 -0 -0 -0 -0 -0 -0 -0 -0 -0 -0 -0 -0 -0 -0 -0 -0 -0 -0 -0 -0 -0 -0 -0 -0 -0 -0 -0 -0 -0 -0 -0 -0 -0 -0 -0 -0 -0 -0 -0
-0 -0 -0 -0 -0 -0 -0 -0 -0 -0 -0 -0 -0 -0 -0 -0 -0 -0 -0 -0 -0 -0 -0 -0 -0 -0 -0 -1 -0 -0 -0 -0 -0 -0 -0 -0 -0 -0 -0 -0 -0 -0 -0 -0
-0 -0 -0 -0 -0 -0 -0 -0 -0 -0 -0 -0 -0 -0 -0 -0 -0 -0 -0 -0 -0 -0 -1 -0 -0 -0 -0 -0 -0 -0 -0 -0 -0 -0 -0 -0 -0 -0 -0 -0 -0 -0 -0 -0
-0 -0 -0 -0 -0 -0 -0 -0 -0 -0 -0 -0 -0 -0 -0 -0 -0 -0 -0 -0 -0 -0 -0 -0 -0 -0 -0 -0 -0 -0 -0 -0 -0 -0 -0 -0 -0 -0 -0 -0 -0 -0 -0 -0
-0 -0 -0 -0 -0 -0 -0 -0 -0 -0 -0 -0 -0 -0 -0 -0 -0 -0 -0 -0 -0 -0 -0 -0 -0 -0 -0 -0 -0 -0 -0 -0 -0 -0 -0 -0 -0 -0 -0 -0 -0 -0 -0 -0
-0 -0 -0 -0 -0 -0 -0 -0 -0 -0 -0 -0 -0 -0 -0 -0 -0 -0 -0 -0 -0 -0 -0 -0 -0 -0 -0 -0 -0 -0 -0 -0 -0 -0 -0 -0 -0 -0 -0 -0 -0 -0 -0 -0
-0 -0 -0 -0 -0 -0 -0 -0 -0 -0 -0 -0 -0 -0 -0 -0 -0 -0 -0 -0 -0 -0 -0 -0 -0 -0 -0 -0 -0 -0 -0 -0 -0 -0 -0 -0 -0 -0 -0 -0 -0 -0 -0 -0
-0 -0 -0 -0 -0 -0 -0 -1 -0 -0 -0 -0 -0 -0 -0 -0 -0 -0 -0 -0 -0 -0 -0 -0 -0 -0 -0 -0 -0 -0 -0 -0 -0 -0 -0 -0 -0 -0 -0 -0 -0 -0 -0 -0
Wind_Speed
3 2 2 4 4 8 8 7 8 6 8 9 9 8 7 6 5 5 5 6 4 4 6 6 7 7 7 6 6 7 7 6 7 8 9 10 9 12 12 9 11 12 10 8
4 2 5 5 6 9 8 7 8 4 4 2 5 6 6 5 5 6 5 5 5 5 5 6 6 6 6 7 7 6 7 9 10 10 11 11 12 13 11 11 11 10 9 8
4 2 1 4 14 16 6 5 7 9 6 7 6 6 5 4 5 5 1 4 6 6 7 7 7 7 7 8 7 7 8 10 11 11 11 12 12 12 13 11 11 9 8 7
3 3 4 1 2 3 7 5 3 7 7 7 6 5 5 5 6 5 5 6 6 6 7 8 7 7 8 7 7 8 9 10 11 11 12 13 13 13 13 11 10 10 10 9
6 4 5 2 5 6 6 2 1 8 7 6 4 3 1 3 2 3 6 7 8 8 7 7 8 9 8 9 10 11 12 13 13 12 13 14 15 15 13 12 12 10 9 10
3 5 8 3 3 3 5 2 6 7 6 5 4 1 4 3 4 7 8 7 8 9 9 7 11 10 9 10 10 11 13 14 14 12 13 15 15 15 14 13 13 11 11 10
6 4 6 4 5 3 6 4 6 6 6 6 4 5 4 5 6 6 7 9 9 9 9 10 11 10 12 12 13 14 15 15 14 13 14 14 14 14 14 13 13 12 11 12
3 4 8 6 4 7 4 5 7 6 6 4 4 3 5 7 8 9 10 10 10 9 10 11 10 9 13 14 15 15 15 15 15 15 12 12 15 14 14 13 12 12 11 11
6 2 3 2 5 5 5 7 5 6 4 3 3 5 7 7 8 8 10 10 8 7 11 11 10 9 13 15 14 14 13 15 14 14 13 15 15 14 12 11 10 10 9 9
5 1 4 6 5 5 5 6 6 6 5 4 5 7 7 7 7 7 8 9 9 8 11 14 13 11 8 13 13 13 13 13 13 15 17 14 12 12 11 11 10 10 9 9
3 4 6 2 4 7 6 6 4 2 2 4 5 8 7 8 7 9 10 10 9 10 12 14 10 11 10 10 11 14 15 14 14 12 13 13 12 11 10 11 12 11 10 9
4 8 4 5 7 6 6 4 4 3 3 5 5 8 7 10 9 8 10 10 9 10 8 11 11 12 12 13 12 13 14 12 11 12 11 11 12 12 18 23 26 26 27 21
5 4 3 9 7 5 6 4 3 3 5 6 5 7 6 9 7 14 11 10 10 12 11 12 12 14 13 13 12 13 13 14 11 14 11 12 12 12 13 14 25 26 26 27
7 8 5 5 6 7 4 1 3 4 4 6 7 5 8 9 12 10 10 11 11 13 13 13 14 14 14 14 13 13 13 22 13 11 11 11 12 12 12 12 13 12 17 21
6 5 6 6 4 2 2 3 6 6 7 7 6 7 7 10 11 11 10 11 12 12 12 12 14 15 14 13 13 14 13 11 12 12 11 14 12 12 11 12 12 12 12 15
6 7 6 3 1 2 3 5 5 7 7 7 7 8 9 9 10 11 11 11 11 11 13 13 13 14 13 13 14 12 12 22 21 12 11 12 12 12 12 12 12 11 10 12
6 2 1 2 4 4 5 6 7 7 7 7 8 10 10 10 11 10 10 10 10 11 12 13 14 13 12 12 13 11 11 12 22 12 10 10 10 10 10 10 9 9 9 10
4 3 3 3 4 6 7 6 7 7 6 7 9 9 9 10 11 11 10 9 8 11 12 11 10 12 13 13 12 10 9 9 9 9 9 9 9 8 8 8 8 9 9 9
4 4 3 5 6 7 6 7 7 7 7 8 8 9 9 10 10 8 8 9 10 11 10 11 18 17 11 13 16 6 8 8 9 8 8 12 8 8 8 8 8 8 8 8
3 2 4 6 6 5 7 6 7 6 7 7 7 7 9 7 7 9 8 9 9 8 11 12 14 11 9 11 14 6 7 8 8 8 8 8 8 8 8 12 10 8 8 8
6 6 6 6 7 7 7 7 6 6 7 6 6 7 8 9 7 8 8 7 11 10 13 18 9 6 6 8 7 6 7 7 7 7 8 8 9 8 8 9 8 8 7 7
4 5 7 7 6 7 7 6 6 6 6 6 5 7 8 8 7 7 7 8 7 17 11 5 5 10 8 11 5 6 6 7 6 6 7 7 7 8 8 8 8 8 7 8
5 5 6 6 7 7 6 6 6 5 5 6 7 7 7 6 5 6 8 7 7 13 3 5 10 13 11 5 5 6 7 7 6 6 6 6 7 7 8 8 8 8 8 8
4 5 5 6 6 5 6 5 5 5 6 7 7 6 6 6 5 5 6 12 16 9 6 7 8 11 10 4 5 5 6 6 5 6 6 11 6 7 7 8 8 9 8 10
5 5 5 6 5 4 5 4 4 5 6 5 5 5 6 5 5 7 6 6 8 5 4 8 10 10 5 5 6 6 6 5 5 5 6 6 7 7 8 8 8 9 8 8
4 4 4 5 4 3 3 4 4 3 4 4 5 5 5 6 6 6 5 4 3 5 4 4 3 5 5 5 5 5 5 5 6 6 8 7 7 8 8 8 8 8 8 8
4 8 4 3 3 4 4 5 5 5 5 5 7 6 5 5 5 5 3 2 3 3 4 4 4 6 4 4 5 5 5 6 10 7 6 7 7 7 8 8 8 7 7 8
Wind_Direction
217 241 194 198 170 177 191 199 186 214 207 199 186 162 140 127 130 87 53 59 52 14 352 342 336 330 328 323 323 318 314 298 291 291 294 294 283 284 272 270 276 272 259 255
310 212 223 243 238 233 216 234 256 248 244 110 107 102 109 105 63 40 45 23 354 331 316 303 296 294 295 295 294 295 295 293 291 297 298 298 295 292 283 275 267 263 261 254
243 54 210 317 216 217 215 183 180 204 202 154 133 135 136 148 145 150 310 302 292 289 288 292 292 287 287 282 283 279 276 279 280 285 286 288 291 288 288 278 276 260 263 268
171 25 292 307 61 217 131 48 79 93 113 123 135 144 145 144 158 208 240 253 266 263 262 261 255 261 264 266 266 268 275 277 282 288 287 291 289 285 280 279 268 269 266 260
148 201 315 222 192 150 164 184 228 124 119 116 101 57 13 185 171 268 260 257 248 249 252 254 262 267 271 282 281 284 280 280 279 278 286 291 289 284 278 282 276 256 254 258
147 177 218 212 168 127 110 249 183 135 134 132 116 118 247 253 289 281 272 260 268 272 275 276 273 271 268 272 272 275 280 283 285 285 284 287 284 280 280 279 273 268 266 262
204 228 284 195 158 137 122 216 139 127 142 150 163 196 230 280 277 270 264 281 284 288 281 279 278 281 282 284 281 279 284 281 277 278 281 280 282 278 282 277 273 263 263 268
173 207 258 148 82 167 144 94 129 134 150 152 194 252 264 277 276 278 280 284 279 279 277 279 279 274 273 274 273 278 275 273 275 277 278 281 282 278 280 277 267 266 266 270
185 218 70 39 121 113 122 128 146 136 160 179 243 264 277 273 273 272 272 276 270 258 279 284 277 256 265 273 286 284 276 281 285 286 285 289 282 279 281 268 265 262 265 271
137 68 122 117 86 109 121 129 146 155 176 196 233 260 263 269 269 278 280 274 269 273 285 286 287 282 265 288 290 291 293 293 296 296 294 291 288 284 280 276 268 266 267 270
80 73 80 61 124 142 123 123 131 132 200 244 262 277 268 284 279 281 285 289 287 285 284 285 288 290 294 296 301 301 298 300 298 293 291 291 285 283 281 277 271 273 269 268
197 167 141 170 159 143 135 151 155 181 264 262 250 273 282 294 291 288 289 286 287 290 278 290 297 301 306 304 300 297 298 300 295 296 293 291 290 288 279 281 284 283 283 282
150 122 107 132 147 149 149 176 196 236 263 282 266 265 273 286 289 298 301 296 296 297 297 302 305 305 302 299 297 295 295 297 295 295 290 289 287 288 290 285 282 283 283 283
116 107 87 153 164 174 164 198 294 272 273 275 282 279 279 284 296 297 293 296 298 299 303 303 302 299 298 300 299 296 293 294 294 290 287 284 282 280 279 281 284 282 277 276
139 80 133 124 107 38 19 343 326 310 300 301 287 282 287 286 290 290 296 296 296 297 295 294 299 298 302 303 299 295 294 294 291 284 281 278 278 277 274 274 273 276 282 280
120 106 113 122 199 264 280 287 275 282 282 277 274 278 277 278 282 291 294 294 296 296 297 297 296 300 304 300 297 297 295 292 295 291 284 278 275 273 271 270 272 271 272 273
107 118 151 252 257 278 260 257 249 258 272 279 281 292 297 292 291 293 288 287 285 289 293 297 296 300 301 301 298 301 299 293 294 302 315 326 332 336 338 338 334 332 329 329
145 158 196 224 283 291 288 258 263 270 273 277 292 293 289 290 289 293 294 293 294 295 293 293 296 304 310 306 306 302 309 334 322 318 321 324 321 332 324 321 318 316 314 314
171 207 296 304 284 286 286 284 278 270 279 279 283 283 282 283 284 289 298 302 302 300 302 307 307 312 303 309 317 343 324 326 321 321 321 323 327 319 319 314 311 310 310 308
265 298 312 295 290 271 285 279 278 273 269 274 277 283 285 285 285 294 296 292 288 285 301 304 309 308 304 306 343 328 320 324 324 327 332 338 327 329 324 329 328 321 318 317
287 289 293 297 295 291 277 275 275 279 278 278 282 290 294 293 291 291 298 304 303 306 313 313 314 314 304 348 351 325 325 326 332 333 332 334 332 332 333 332 332 333 334 338
286 292 287 286 283 281 280 282 283 287 294 291 284 284 293 296 295 292 291 280 302 312 309 325 311 335 358 1 332 332 332 335 338 337 338 341 338 339 340 339 352 351 359 0
282 278 281 282 286 287 295 292 295 300 293 297 297 297 296 292 298 304 307 312 309 308 351 321 344 5 14 356 342 341 340 338 349 345 340 343 340 342 345 349 5 3 12 15
300 300 289 294 302 306 302 302 304 295 285 292 293 289 295 307 302 281 286 300 311 343 356 338 14 23 27 355 351 349 345 343 355 350 348 3 350 350 358 357 14 12 18 24
314 299 304 317 308 291 300 299 300 290 296 290 290 296 291 291 281 294 291 296 334 5 357 354 27 35 17 12 359 357 353 354 11 5 358 360 359 3 9 14 26 27 17 19
326 312 298 299 295 299 296 304 287 284 296 307 298 300 297 291 289 300 297 8 20 26 14 349 45 37 21 15 9 0 354 9 19 10 13 7 7 11 11 10 13 13 17 16
329 333 300 305 309 323 304 308 326 304 310 306 299 293 291 299 305 327 58 31 36 33 28 17 34 51 44 34 10 6 2 6 24 22 7 9 12 14 18 19 17 14 18 24